Flag for Netherlands Weather past 2 weeks in Tilburg, Netherlands

Now
82 °F

Warm.


Feels Like: 85 °F
Forecast: 66 / 87 °F
Wind: 5 mph from West

Location: Gilze-Rijen

Current Time: Jul 2, 2015 at 10:54:22 AM

Latest Report: Jul 2, 2015 at 10:25 AM


Visibility: N/A

Pressure: 30.01 "Hg

Humidity: 58%

Dew point: 66 °F

Location of TilburgLocation

Historic Weather in Tilburg — Graph

°F

Tilburg temperature yesterday

Maximum temperature yesterday: 93 °F (at 3:25 PM)
Minimum temperature yesterday: 59 °F (at 5:25 AM)
Average temperature yesterday: 80 °F

Past Weeks' High & Low Weather Summary

 TemperatureHumidityPressure
High93 °F (Jul 1, 3:25 PM)100% (Jun 18, 3:25 AM)30.24 "Hg (Jun 18, 3:25 AM)
Low48 °F (Jun 28, 4:25 AM)28% (Jul 1, 2:25 PM)29.71 "Hg (Jun 22, 4:55 PM)
Average64 °F71%30.06 "Hg
* Reported Jun 17 9:25 AM — Jul 2 9:55 AM, Tilburg, Weather by CustomWeather, © 2015

Note: Actual official high and low records may vary slightly from our data, if they occured in-between our weather recording intervals... More about our weather records

Advertising

Tilburg weather history for previous 24 hours

 ConditionsComfort  
Time TempWeatherWind HumidityBarometerVisibility
9:55 AM
Thu, Jul 2
82 °FPassing clouds.6 mph58%30.04 "HgN/A
9:25 AM81 °FWarm.3 mph58%30.01 "HgN/A
8:55 AM81 °FPartly sunny.3 mph54%30.01 "HgN/A
8:25 AM79 °FPassing clouds.6 mph58%30.01 "HgN/A
7:55 AM77 °FWarm.5 mph57%30.01 "HgN/A
7:25 AM73 °FMild.5 mph65%30.01 "HgN/A
6:55 AM73 °FMild.3 mph61%29.98 "HgN/A
6:25 AM72 °FMild.3 mph65%29.98 "HgN/A
5:55 AM72 °FMild.3 mph65%29.98 "HgN/A
5:25 AM72 °FMild.5 mph65%29.98 "HgN/A
4:55 AM73 °FMild.7 mph61%29.98 "HgN/A
4:25 AM73 °FMild.7 mph61%29.98 "HgN/A
3:55 AM75 °FMild.7 mph57%29.98 "HgN/A
3:25 AM75 °FMild.8 mph57%29.98 "HgN/A
2:55 AM75 °FMild.9 mph57%29.98 "HgN/A
2:25 AM77 °FWarm.8 mph57%29.98 "HgN/A
1:55 AM77 °FWarm.8 mph54%29.98 "HgN/A
1:25 AM77 °FWarm.7 mph54%29.98 "HgN/A
12:55 AM79 °FWarm.7 mph51%29.98 "HgN/A
12:25 AM81 °FClear.8 mph48%29.98 "HgN/A
11:55 PM
Wed, Jul 1
81 °FWarm.7 mph51%29.98 "HgN/A
10:55 PM82 °FWarm.6 mph48%29.98 "HgN/A
10:25 PM84 °FWarm.6 mph45%29.98 "HgN/A
9:55 PM86 °FWarm.6 mph43%29.95 "HgN/A
9:25 PM88 °FWarm.6 mph43%29.95 "HgN/A
8:55 PM90 °FHot.7 mph41%29.95 "HgN/A
8:25 PM91 °FHot.7 mph36%29.95 "HgN/A
7:55 PM93 °FExtremely hot.8 mph34%29.95 "HgN/A
7:25 PM93 °FPassing clouds.9 mph34%29.95 "HgN/A
6:55 PM93 °FExtremely hot.9 mph34%29.95 "HgN/A
6:25 PM93 °FExtremely hot.10 mph32%29.95 "HgN/A
5:55 PM93 °FExtremely hot.9 mph32%29.95 "HgN/A
5:25 PM93 °FExtremely hot.10 mph32%29.95 "HgN/A
4:55 PM93 °FExtremely hot.9 mph32%29.98 "HgN/A
4:25 PM93 °FExtremely hot.8 mph32%29.98 "HgN/A
3:55 PM93 °FExtremely hot.8 mph28%29.98 "HgN/A
3:25 PM93 °FExtremely hot.10 mph30%29.98 "HgN/A
2:55 PM91 °FHot.12 mph30%29.98 "HgN/A
2:25 PM91 °FHot.10 mph28%29.98 "HgN/A
1:55 PM91 °FHot.10 mph30%30.01 "HgN/A
1:25 PM90 °FHot.12 mph31%30.01 "HgN/A
12:55 PM88 °FPleasantly warm.10 mph35%30.01 "HgN/A
12:25 PM88 °FPleasantly warm.10 mph33%30.01 "HgN/A
11:55 AM86 °FPleasantly warm.9 mph38%30.01 "HgN/A
11:25 AM84 °FWarm.9 mph43%30.04 "HgN/A
10:55 AM82 °FPassing clouds.10 mph42%30.04 "HgN/A
10:25 AM81 °FScattered clouds.9 mph45%30.04 "HgN/A
Weather by CustomWeather, © 2015

See weather overviewHow to use our weather pages